www.pogodaiklimat.ru

Погода и климат >> Архив погоды >> Норвегия >> Лекнес


ПОГОДА в Лекнесе

  • Прогноз погоды в Лекнесе
  • Монитор погоды в Лекнесе

АРХИВ ПОГОДЫ в Лекнесе

Время (UTC), дата Ветер
(напр.,м/с)
 
Видим.   Явления Облачность Т
(С)
Тd
(С)
f
(%)
Тe
(С)
Тes
(С)
Комфортность P
(гПа)
Po
(гПа)
Тmin
(С)
Tmax
(С)
R
(мм)
R24
(мм)
S
(см)
10 8.09 Ю 6
{10}
н/о н/о +11.2 +6.4 72 +8 +8 1022.2 1019.2
11 8.09 Ю 8
{12}
н/о н/о +10.8 +5.2 68 +7 +7 1021.8 1018.8
12 8.09 Ю 8
{12}
н/о н/о +11.0 +5.8 70 +8 +8 1021.6 1018.6
13 8.09 Ю 7 н/о н/о +11.3 +6.2 71 +8 +8 1021.5 1018.5
14 8.09 Ю 7
{14}
н/о н/о +11.3 +7.0 75 +8 +8 1021.5 1018.5
15 8.09 Ю 9
{13}
н/о н/о +11.4 +6.9 74 +8 +8 1021.4 1018.4
16 8.09 Ю 8
{14}
н/о н/о +11.2 +6.9 75 +8 +8 1021.4 1018.4
17 8.09 Ю 8
{12}
н/о н/о +11.3 +7.4 77 +8 +8 1021.4 1018.4
18 8.09 Ю 10
{14}
н/о н/о +11.4 +7.3 76 +8 +8 1021.5 1018.5 +3.9 +11.6
19 8.09 Ю 9
{13}
н/о н/о +11.5 +7.8 78 +8 +8 1021.4 1018.4
20 8.09 Ю 8
{12}
н/о н/о +11.5 +8.0 79 +8 +8 1021.2 1018.2
21 8.09 Ю 7
{11}
н/о н/о +11.6 +7.7 77 +8 +8 1021.5 1018.5
22 8.09 Ю 5
{10}
н/о н/о +11.5 +8.5 82 +9 +9 1021.6 1018.5
23 8.09 ЮВ 5
{9}
н/о н/о +11.5 +8.2 80 +9 +9 1021.7 1018.7
00 9.09 ЮВ 5
{13}
н/о н/о +11.6 +8.1 79 +9 +9 1021.7 1018.7
01 9.09 Ю 6
{9}
н/о н/о +11.8 +6.5 70 +9 +9 1021.4 1018.3
02 9.09 Ю 5
{9}
н/о н/о +11.4 +4.9 64 +9 +9 1021.1 1018.1
03 9.09 Ю 3
{7}
н/о н/о +10.7 +6.8 77 +9 +9 1021.1 1018.1
04 9.09 Ю 3
{6}
н/о н/о +11.2 +8.1 81 +9 +9 1021.0 1018.0
05 9.09 ЮЗ 4
{6}
н/о н/о +11.1 +7.4 78 +9 +9 1021.1 1018.1
06 9.09 ЮЗ 4
{9}
н/о н/о +12.2 +7.5 73 +10 +10 1020.9 1017.9 +10.4 +12.2
07 9.09 Ю 3
{6}
н/о н/о +12.5 +5.2 61 +11 +11 1020.9 1017.9
08 9.09 Ю 5
{7}
н/о н/о +13.4 +7.0 65 +12 +12 1021.0 1018.1
09 9.09 Ю 4
{8}
н/о н/о +14.7 +5.2 53 +14 +14 1021.1 1018.2
10 9.09 Ю 5
{6}
н/о н/о +14.4 +7.7 64 +13 +13 1021.1 1018.1
11 9.09 Ю 5
{7}
н/о н/о +14.6 +6.7 59 +13 +13 1020.9 1018.0
12 9.09 Ю 5
{8}
н/о н/о +14.4 +6.3 58 +13 +13 1021.0 1018.0
13 9.09 Ю 5
{8}
н/о н/о +14.2 +7.7 65 +13 +13 1020.9 1018.0
14 9.09 Ю 4
{7}
н/о н/о +14.3 +7.6 64 +13 +13 1020.6 1017.6
15 9.09 Ю 3
{6}
н/о н/о +13.7 +7.5 66 +13 +13 1020.4 1017.4
16 9.09 Ю 2
{5}
н/о н/о +13.8 +7.6 66 +13 +13 1020.0 1017.0
17 9.09 Ю 2
{3}
н/о н/о +13.3 +7.3 67 +13 +13 1019.9 1016.9
18 9.09 ЮЗ 1
{8}
н/о н/о +11.2 +7.5 78 +11 +11 1020.0 1017.0 +11.2 +14.9
19 9.09 штиль 0
{2}
н/о н/о +9.8 +7.6 86 +9 +9 1020.3 1017.2
20 9.09 СВ 2
{2}
н/о н/о +8.6 +7.4 92 +7 +7 1020.0 1017.0
21 9.09 ЮЗ 1
{3}
н/о н/о +7.1 +6.1 93 +6 +6 1019.8 1016.8
22 9.09 ЮВ 2
{2}
н/о н/о +8.1 +5.9 86 +6 +6 1019.8 1016.8
23 9.09 З 1
{2}
н/о н/о +7.3 +6.1 92 +6 +6 1019.4 1016.3
00 10.09 штиль 0
{3}
н/о н/о +9.5 +7.5 87 +9 +9 1019.3 1016.3
01 10.09 СЗ 1
{2}
н/о н/о +8.4 +7.0 91 +8 +8 1019.1 1016.0
02 10.09 СЗ 1
{2}
н/о н/о +8.5 +6.0 84 +8 +8 1018.5 1015.5
03 10.09 Ю 1
{2}
н/о н/о +9.2 +6.3 82 +9 +9 1018.2 1015.2
04 10.09 штиль 0
{2}
н/о н/о +9.0 +5.8 80 +8 +8 1017.3 1014.3
05 10.09 С 2
{2}
н/о н/о +9.1 +6.2 82 +7 +7 1017.1 1014.1
06 10.09 В 1
{3}
н/о н/о +11.1 +6.1 71 +11 +11 1016.8 1013.8 +5.8 +11.1
07 10.09 штиль 0
{1}
н/о н/о +10.8 +8.0 83 +10 +10 1016.4 1013.4
08 10.09 ЮВ 1
{2}
н/о н/о +12.1 +8.4 78 +12 +12 1016.2 1013.2
09 10.09 штиль 0
{2}
н/о н/о +13.3 +8.6 73 +13 +13 1015.9 1012.9
10 10.09 СВ 1
{2}
н/о н/о +13.7 +9.4 75 +14 +14 1015.5 1012.6
11 10.09 Ю 4
{6}
н/о н/о +14.3 +9.3 72 +13 +13 1015.3 1012.4
12 10.09 Ю 3
{6}
н/о н/о +13.2 +10.7 85 +12 +12 1015.3 1012.3
13 10.09 ЮЗ 2
{4}
н/о н/о +13.3 +10.7 84 +13 +13 1014.9 1011.9
14 10.09 ЮЗ 3
{5}
н/о н/о +13.7 +11.4 86 +13 +13 1014.2 1011.2
15 10.09 Ю 1
{5}
н/о н/о +13.5 +11.2 86 +14 +14 1013.9 1010.9
16 10.09 Ю 3
{5}
н/о н/о +13.3 +11.5 89 +12 +12 1013.4 1010.4
17 10.09 Ю 3
{5}
н/о н/о +12.8 +11.9 94 +11 +11 1012.8 1009.9
18 10.09 ЮВ 3
{5}
н/о н/о +12.6 +11.8 95 +11 +11 1012.3 1009.3 +10.7 +14.3 0.1
19 10.09 Ю 3
{4}
н/о н/о +12.5 +12.0 97 +11 +11 1011.7 1008.8 0.3
20 10.09 Ю 3
{5}
н/о н/о +12.5 +12.2 98 +11 +11 1011.4 1008.4 0.2
21 10.09 ЮВ 3
{4}
н/о н/о +12.4 +11.9 97 +11 +11 1010.7 1007.7 0.2
22 10.09 ЮВ 1
{3}
н/о н/о +12.0 +11.5 97 +12 +12 1010.0 1007.1 0.1
23 10.09 Ю 1
{2}
н/о н/о +11.9 +11.4 97 +12 +12 1009.4 1006.5 0.5
00 11.09 З 1
{5}
н/о н/о +12.1 +11.8 98 +12 +12 1008.5 1005.6 2
01 11.09 З 1
{5}
н/о н/о +12.4 +11.9 97 +12 +12 1007.6 1004.6 1
02 11.09 СЗ 2
{3}
н/о н/о +12.7 +11.9 95 +12 +12 1006.4 1003.5 0.1
03 11.09 В 2
{3}
н/о н/о +12.6 +12.0 96 +12 +12 1005.6 1002.6 0.5
04 11.09 В 1
{5}
н/о н/о +13.8 +12.5 92 +14 +14 1004.4 1001.4 0.1
05 11.09 Ю 2
{5}
н/о н/о +14.3 +12.0 86 +14 +14 1003.5 1000.6
06 11.09 В 2
{5}
н/о н/о +14.7 +12.0 84 +14 +14 1002.9 1000.0 +11.8 +14.8 5
07 11.09 Ю 3
{6}
н/о н/о +15.6 +12.2 80 +15 +15 1002.0 999.1
08 11.09 ЮВ 7
{10}
н/о н/о +18.4 +10.0 58 +18 +18 1001.1 998.3
09 11.09 ЮВ 8
{14}
н/о н/о +19.3 +8.6 50 +19 +19 1000.3 997.5
10 11.09 ЮВ 10
{19}
н/о н/о +19.5 +9.4 52 +20 +20 999.5 996.7
11 11.09 ЮВ 8
{18}
н/о н/о +19.8 +9.7 52 +20 +20 998.8 995.9
12 11.09 ЮВ 10
{21}
н/о н/о +20.1 +9.4 50 +21 +21 комфорт 998.1 995.2
13 11.09 ЮВ 8
{16}
н/о н/о +20.2 +9.2 49 +21 +21 комфорт 997.4 994.5
14 11.09 ЮВ 9
{17}
н/о н/о +20.2 +8.9 48 +21 +21 комфорт 996.8 994.0
15 11.09 ЮВ 9
{18}
н/о н/о +19.9 +8.9 49 +20 +20 996.2 993.4
16 11.09 ЮВ 8
{14}
н/о н/о +19.0 +8.9 52 +19 +19 995.6 992.7
17 11.09 ЮВ 4
{16}
н/о н/о +14.2 +11.7 85 +13 +13 996.1 993.2 0.5
18 11.09 ЮВ 4
{18}
н/о н/о +14.0 +11.9 87 +13 +13 995.6 992.7 +13.8 +20.3 0.6
19 11.09 ЮЗ 1
{5}
н/о н/о +13.5 +11.7 89 +14 +14 995.3 992.4
20 11.09 Ю 5
{7}
н/о н/о +13.5 +10.5 82 +12 +12 995.6 992.7
21 11.09 Ю 5
{7}
н/о н/о +11.9 +11.1 95 +9 +9 996.0 993.0 0.9
22 11.09 Ю 5
{9}
н/о н/о +11.9 +11.1 95 +9 +9 996.0 993.1 0.8
23 11.09 Ю 6
{9}
н/о н/о +12.1 +11.2 94 +9 +9 995.8 992.9 0.5
00 12.09 Ю 6
{11}
н/о н/о +12.2 +11.3 94 +9 +9 995.9 993.0 0.1
01 12.09 Ю 6
{11}
н/о н/о +12.2 +11.3 94 +9 +9 995.8 992.9
02 12.09 Ю 5
{10}
н/о н/о +12.0 +10.7 92 +9 +9 995.7 992.8
03 12.09 Ю 5
{9}
н/о н/о +12.0 +10.6 91 +9 +9 995.5 992.6
04 12.09 Ю 6
{9}
н/о н/о +11.7 +10.6 93 +9 +9 995.2 992.3
05 12.09 Ю 6
{9}
н/о н/о +11.8 +10.1 89 +9 +9 995.3 992.3
06 12.09 Ю 6
{11}
н/о н/о +12.1 +10.5 90 +9 +9 995.3 992.4 +11.6 +14.1 2
07 12.09 Ю 6
{10}
н/о н/о +12.5 +10.4 87 +10 +10 995.1 992.1
08 12.09 Ю 7
{13}
н/о н/о +12.3 +10.7 90 +9 +9 995.1 992.2 0.2
09 12.09 Ю 7
{13}
н/о н/о +12.2 +10.4 89 +9 +9 995.3 992.4
10 12.09 З 6
{10}
н/о н/о +11.8 +9.9 88 +9 +9 995.8 992.8
11 12.09 ЮЗ 4
{8}
н/о н/о +12.1 +8.2 77 +10 +10 996.3 993.3
12 12.09 З 7
{13}
н/о н/о +11.4 +7.3 76 +8 +8 997.0 994.0
13 12.09 З 5
{11}
н/о н/о +10.8 +7.5 80 +8 +8 997.8 994.9
14 12.09 ЮЗ 4
{9}
н/о н/о +11.3 +5.4 67 +9 +9 998.1 995.2
15 12.09 З 4
{8}
н/о н/о +11.2 +4.9 65 +9 +9 998.4 995.4
16 12.09 З 4
{6}
н/о н/о +10.5 +5.1 69 +8 +8 998.6 995.6
17 12.09 ЮЗ 3
{5}
н/о н/о +9.5 +5.3 75 +7 +7 998.7 995.8 0.1
18 12.09 З 3
{11}
н/о н/о +9.1 +5.3 77 +7 +7 998.8 995.8 +12.7 0.3
19 12.09 З 4
{7}
н/о н/о +8.6 +5.7 82 +6 +6 998.8 995.9 0.2
20 12.09 З 4
{6}
н/о н/о +8.2 +5.5 83 +5 +5 998.7 995.8
21 12.09 ЮЗ 2
{4}
н/о н/о +8.2 +5.8 85 +6 +6 998.9 995.9
22 12.09 В 2
{3}
н/о н/о +8.0 +5.6 85 +6 +6 998.9 995.9
23 12.09 СВ 1
{3}
н/о н/о +7.8 +5.9 88 +7 +7 998.9 995.9
00 13.09 З 4
{7}
н/о н/о +7.7 +5.8 88 +4 +4 999.2 996.2
01 13.09 З 3
{4}
н/о н/о +7.4 +5.2 86 +4 +4 999.5 996.5
02 13.09 З 2
{7}
н/о н/о +7.6 +6.1 90 +5 +5 999.6 996.7 0.1
03 13.09 З 4
{8}
н/о н/о +8.1 +6.9 92 +5 +5 999.9 996.9 0.1
04 13.09 З 3
{10}
н/о н/о +8.0 +6.5 90 +5 +5 1000.2 997.2 0.1
05 13.09 З 4
{9}
н/о н/о +7.9 +6.4 90 +4 +4 1000.7 997.7 0.4
06 13.09 З 7
{11}
н/о н/о +8.2 +4.8 79 +4 +4 1001.5 998.5 +6.3 +9.3 1
07 13.09 З 7
{11}
н/о н/о +8.5 +2.7 67 +4 +4 1002.1 999.2 0.1
08 13.09 З 7
{12}
н/о н/о +9.0 +4.2 72 +5 +5 1002.8 999.8
09 13.09 З 7
{10}
н/о н/о +7.9 +4.5 79 +3 +3 1003.8 1000.8
10 13.09 З 5 н/о н/о +9.4 +5.0 74 +6 +6 1004.4 1001.4 0.1
11 13.09 З 5 н/о н/о +9.7 +4.1 68 +7 +7 1005.3 1002.3
12 13.09 З 6
{12}
н/о н/о +9.6 +3.1 64 +6 +6 1006.1 1003.1 0.2
13 13.09 З 5 н/о н/о +9.2 +2.1 61 +6 +6 1006.9 1004.0
14 13.09 З 6 н/о н/о +9.5 +2.6 62 +6 +6 1007.3 1004.3
15 13.09 З 3 н/о н/о +8.3 +4.7 78 +6 +6 1007.8 1004.8 0.1
16 13.09 З 5 н/о н/о +7.8 +4.2 78 +4 +4 1008.0 1005.0 0.1
17 13.09 З 3 н/о н/о +7.7 +5.2 84 +5 +5 1008.2 1005.2 0.2
18 13.09 Ю 3
{10}
н/о н/о +7.2 +4.5 83 +4 +4 1008.3 1005.2 +9.8 0.6
19 13.09 Ю 2 н/о н/о +6.5 +4.2 85 +4 +4 1008.3 1005.3
20 13.09 СВ 2 н/о н/о +6.4 +4.1 85 +4 +4 1008.3 1005.3 0.4
21 13.09 ЮВ 2 н/о н/о +6.0 +3.5 84 +4 +4 1008.3 1005.2
22 13.09 З 5 н/о н/о +6.7 +4.0 83 +3 +3 1008.4 1005.4
23 13.09 В 2 н/о н/о +5.5 +3.5 87 +3 +3 1008.4 1005.3
00 14.09 С 2
{6}
н/о н/о +3.8 +2.6 92 +1 +1 1008.5 1005.5 0.7
01 14.09 В 2
{3}
н/о н/о +5.4 +4.4 93 +3 +3 1008.4 1005.4 0.2
02 14.09 В 2
{3}
н/о н/о +4.9 +3.7 92 +2 +2 1008.3 1005.3 0.1
03 14.09 ЮВ 1 н/о н/о +4.0 +2.5 90 +3 +3 1008.1 1005.0
04 14.09 В 1
{3}
н/о н/о +3.0 +2.3 95 +1 +1 1007.9 1004.8
05 14.09 ЮВ 1
{2}
н/о н/о +2.6 +1.7 94 +1 +1 1007.9 1004.8
06 14.09 СВ 2
{3}
н/о н/о +4.5 +3.6 94 +2 +2 1007.9 1004.9 +2.5 +7.5 1
08 14.09 З 1
{3}
н/о н/о +10.0 +5.8 75 +10 +10 1008.2 1005.2
09 14.09 З 2
{6}
н/о н/о +8.2 +5.1 81 +6 +6 1008.6 1005.6
10 14.09 ЮЗ 2
{3}
н/о н/о +10.2 +4.4 67 +9 +9 1008.6 1005.6
11 14.09 ЮЗ 3
{6}
н/о н/о +10.0 +3.3 63 +8 +8 1008.8 1005.8
12 14.09 З 3
{6}
н/о н/о +10.5 +4.7 67 +9 +9 1008.8 1005.8
13 14.09 ЮВ 2
{5}
н/о н/о +10.2 +4.8 69 +9 +9 1008.3 1005.3
14 14.09 СЗ 3
{4}
н/о н/о +9.2 +5.0 75 +7 +7 1007.9 1004.9
15 14.09 СЗ 1
{3}
н/о н/о +10.0 +5.0 71 +10 +10 1007.1 1004.1
16 14.09 Ю 3
{6}
н/о н/о +8.8 +3.4 69 +7 +7 1006.0 1003.1
17 14.09 Ю 4
{6}
н/о н/о +8.8 +4.8 76 +6 +6 1004.9 1001.9
18 14.09 ЮВ 2
{6}
н/о н/о +8.5 +4.1 74 +7 +7 1003.8 1000.9 +4.5 +11.2
19 14.09 ЮВ 3
{6}
н/о н/о +8.0 +3.9 75 +5 +5 1002.4 999.4
20 14.09 ЮВ 4
{8}
н/о н/о +7.8 +4.8 81 +5 +5 1001.1 998.1 0.2
21 14.09 ЮВ 4
{8}
н/о н/о +7.8 +3.9 76 +5 +5 999.6 996.6 0.1
22 14.09 В 3
{7}
н/о н/о +7.7 +4.1 78 +5 +5 998.0 995.0
23 14.09 ЮВ 4
{7}
н/о н/о +9.2 +2.6 63 +7 +7 996.4 993.5
00 15.09 ЮВ 6
{11}
н/о н/о +9.3 +3.1 65 +6 +6 994.6 991.7
01 15.09 В 6
{10}
н/о н/о +9.2 +2.3 62 +6 +6 993.0 990.1
02 15.09 В 5
{9}
н/о н/о +9.1 +2.9 65 +6 +6 991.6 988.7
03 15.09 В 5
{9}
н/о н/о +9.5 +2.2 60 +7 +7 990.1 987.2
05 15.09 ЮВ 7
{13}
н/о н/о +10.3 +2.4 58 +7 +7 988.4 985.5
06 15.09 ЮВ 6
{13}
н/о н/о +9.3 +3.7 68 +6 +6 988.0 985.0 +7.4 +10.4 0.8
07 15.09 ЮВ 6
{12}
н/о н/о +8.6 +4.8 77 +5 +5 987.9 984.9 1
08 15.09 ЮВ 5
{9}
н/о н/о +9.0 +5.2 77 +6 +6 987.9 984.9 0.5
09 15.09 ЮВ 5
{9}
н/о н/о +10.4 +5.6 72 +8 +8 988.0 985.1 0.1

 

Местоположение метеостанции Лекнес (Норвегия): широта 68.16 долгота 13.62 высота над уровнем моря 26 м.

В архиве по умолчанию представлена погода в Лекнесе за последнюю неделю. Архивные данные за месяц целиком и за предыдущие месяцы, начиная с января 2011 года, Вы можете получить, выбрав интересующий диапазон дат из раскрывающегося списка и нажав кнопку "Ввод!".


*Определитесь, кто Вы:
робот инопланетянин человек

Внимание! Время в таблицах - всемирное. Для получения местного времени необходимо прибавить поправку, которая равна 1 ч.

Смотрите также архив погоды в соседних городах и на ближайших метеорологических станциях:

Погода на Маяке Skrova (Норвегия) (43 км)
Погода в Сволваер аэропорту (Норвегия) (45 км)
Погода в Бё (Норвегия) (60 км)
Погода в Аэропорту Vaeroy Heliport (Норвегия) (68 км)
Погода в Стокмаркнес аэропорту (Норвегия) (74 км)
Погода в Хеллигвере (Норвегия) (85 км)
Погода в Сортланне (Норвегия) (95 км)
Погода в Рост аэропорту (Норвегия) (96 км)
Погода на Маяке Rotvaer (Норвегия) (98 км)
Погода в Драге (Норвегия) (103 км)

Пояснения к столбцам:

Ветер - указаны скорость ветра в м/с - средняя за 10 мин, порывы в срок и между сроками (в фигурных скобках) и направление, откуда дует ветер: С - северный, СВ - северо-восточный, В - восточный, ЮВ - юго-восточный, Ю - южный, ЮЗ - юго-западный, З - западный, СЗ - северо-западный.
Видимость - горизонтальная дальность видимости в метрах или километрах. При видимости от 1 до 10 км при отсутствии осадков обычно наблюдается дымка, при ухудшении видимости до 1 км и менее - туман. В сухую погоду видимость может ухудшаться дымом, пылью или мглою.
Явления - указаны атмосферные явления, наблюдавшиеся в срок или в последний час перед сроком; фигурными скобками обозначены явления, наблюдавшиеся между сроками (за 1-3 часа до срока); квадратными скобками обозначены град или гололедные отложения с указанием их диаметра в мм.
Облачность - указаны через наклонную черту общая и нижняя облачность в баллах и высота нижней границы облаков в метрах; квадратными скобками обозначены формы облаков: Ci - перистые, Cs - перисто-слоистые, Cc - перисто-кучевые, Ac - высококучевые, As - высокослоистые, Sc - слоисто-кучевые, Ns - слоисто-дождевые, Cu - кучевые, Cb - кучево-дождевые. Подробнее классификацию облаков см. в Атласе облаков (PDF).
T - Температура воздуха - температура, измеренная на высоте 2 м над землей.
Td - Температура точки росы - температура, при понижении до которой содержащийся в воздухе водяной пар достигнет насыщения.
f - Относительная влажность воздуха - влажноcть воздуха, измеренная на высоте 2 м над землей.
Te - Эффективная температура - температура, которую ощущает одетый по сезону человек в тени. Характеристика душности погоды. При расчете учитывается влияние влажности воздуха и скорости ветра на теплоощущения человека.
Tes - Эффективная температура на солнце - температура, которую ощущает человек, с поправкой на солнечный нагрев. Характеристика знойности погоды. Зависит от высоты солнца над горизонтом, облачности и скорости ветра. Ночью, в пасмурную погоду, а также при ветре 12 м/с и более поправка равна нулю.
P - Атмосферное давление - приведенное к уровню моря атмосферное давление.
Po - Атмосферное давление - измеренное на уровне метеостанции атмосферное давление.
Tmin - Минимальная температура - минимум температуры воздуха на высоте 2 м над землей.
Tmax - Максимальная температура - максимум температуры воздуха на высоте 2 м над землей.
R - Количество осадков - Количество выпавших осадков за период времени, мм. При наведении курсора мыши на число - период времени, за который выпало указанное количество осадков.
R24 - Количество осадков - Количество выпавших осадков за 24 часа, мм.
S - Снежный покров - Высота снежного покрова, см. При наведении курсора мыши на число - состояние снежного покрова и степень покрытия местности в баллах.